Wind_Speed
79 79 79 78 80 81 81 81 83 81 80 80 80 81 80 79 80 80 80 80 77 76 73 72 71 71 70 67 65 64 63 65 64 58 61 53 56 56 54 52 44 41 44 45 41
83 83 85 85 83 85 86 86 86 86 85 85 85 84 83 82 81 83 82 81 81 78 77 77 74 74 72 71 68 67 66 73 71 71 69 65 61 61 62 60 54 43 48 49 45
86 88 88 88 87 87 88 89 89 90 89 89 89 87 87 87 86 87 86 85 84 84 83 83 83 81 80 80 81 77 79 79 79 75 68 74 68 65 68 67 55 46 51 52 50
88 89 89 91 92 91 92 91 91 90 90 91 93 93 93 92 91 93 93 93 93 92 92 92 92 89 89 88 87 82 86 84 85 80 77 78 78 72 70 72 59 51 56 58 56
86 90 90 91 91 93 93 95 95 96 97 98 97 98 96 96 97 98 97 98 99 101 101 101 98 95 94 95 95 90 92 87 87 82 79 77 74 74 66 69 62 56 61 62 62
79 81 84 89 90 89 91 94 96 94 94 97 99 98 99 100 101 100 101 102 103 102 102 104 105 105 102 101 98 95 89 87 83 79 73 69 67 63 68 70 66 59 65 63 68
73 75 77 80 82 84 86 89 90 91 94 94 96 98 97 98 98 100 101 99 99 101 106 102 102 100 97 96 95 88 83 79 75 75 71 69 55 60 73 70 71 62 69 68 72
69 73 76 77 75 80 81 83 84 86 87 89 91 92 92 91 93 92 93 94 97 97 98 98 98 96 94 92 90 90 84 75 74 70 70 64 45 57 67 64 68 68 71 73 73
72 74 76 77 77 79 80 83 85 88 89 90 91 93 93 94 95 96 96 97 98 98 99 100 98 96 95 91 90 86 79 76 73 74 73 69 57 61 67 67 67 71 75 76 73
74 78 79 80 81 83 86 87 89 90 91 93 93 95 96 98 98 98 99 101 102 103 101 102 103 102 98 96 94 92 87 77 74 79 77 72 60 66 70 74 70 71 78 77 75
70 75 81 82 84 85 89 91 92 91 92 93 95 98 99 102 104 104 104 103 105 105 105 104 105 105 104 102 99 95 93 90 85 83 83 80 66 67 73 72 70 70 76 81 78
70 73 75 78 80 82 84 88 91 93 94 97 98 99 101 103 104 104 105 106 108 109 109 111 110 109 110 108 107 105 102 102 97 95 89 91 80 76 76 73 75 72 74 83 80
69 70 72 73 73 75 77 79 83 86 87 87 88 90 95 96 96 97 99 101 101 101 100 101 100 101 98 101 98 101 100 100 93 92 88 89 79 82 81 81 79 75 73 82 84
73 73 72 76 76 75 77 79 80 80 82 83 86 91 92 91 91 92 94 94 93 92 91 91 92 94 98 98 96 94 96 91 89 87 88 90 77 78 86 86 81 75 76 79 87
72 73 72 73 75 75 77 77 79 81 84 82 84 88 88 87 87 86 87 86 84 82 80 81 84 89 90 92 92 90 92 90 88 89 87 84 86 65 88 90 80 81 85 84 89
76 77 78 77 76 78 77 76 76 77 78 77 78 81 80 79 80 80 81 80 81 79 76 76 79 82 84 87 87 87 89 88 86 86 77 77 93 78 83 89 92 88 91 91 93
69 69 70 71 70 69 70 71 72 72 73 73 75 76 75 75 75 75 77 76 76 76 78 79 80 82 79 79 82 83 85 84 85 82 74 85 102 71 80 92 98 96 93 99 96
79 78 75 71 70 72 72 71 69 68 68 71 72 73 74 73 75 74 74 73 72 74 75 75 76 86 82 79 76 88 80 82 75 74 77 90 86 74 87 94 103 100 99 105 101
81 78 76 73 72 72 72 71 71 72 73 72 72 72 74 73 73 73 72 72 73 74 75 72 72 82 82 84 77 79 79 78 74 72 77 81 72 79 96 96 103 102 106 107 108
78 74 72 68 68 67 68 69 71 71 70 70 70 72 72 71 71 69 69 70 71 72 69 69 62 73 76 73 72 70 73 72 69 67 75 70 68 76 94 100 111 116 114 110 115
64 61 58 55 53 54 56 57 57 60 62 64 63 63 61 61 63 64 66 67 66 65 65 63 61 56 66 69 67 68 65 62 65 65 68 64 60 74 93 110 115 121 119 116 116
52 48 47 46 45 45 45 44 44 43 46 49 51 53 54 55 57 58 59 58 58 59 60 63 61 55 61 66 61 63 59 57 58 61 56 54 56 74 92 110 119 123 126 124 118
45 41 40 40 38 37 36 36 36 36 36 39 41 44 46 48 46 46 51 53 55 58 58 59 63 54 60 65 58 57 54 51 52 52 55 52 59 77 101 110 122 125 126 126 122
39 37 33 33 33 31 32 30 29 30 30 32 35 35 36 40 38 39 47 50 57 60 61 57 61 53 54 61 58 53 51 46 48 51 57 54 66 78 97 110 119 123 126 126 122
35 34 32 31 28 27 29 30 29 31 30 28 33 32 35 36 40 45 46 50 60 63 65 59 57 53 64 51 53 52 49 46 46 50 53 56 73 78 92 104 119 126 123 128 123
34 34 32 31 28 26 25 24 26 29 30 33 32 37 39 38 42 47 53 57 59 64 71 65 61 48 56 52 49 48 47 46 46 49 53 59 72 77 88 102 119 129 124 125 125
35 36 36 33 33 33 31 31 30 32 38 37 38 42 48 49 50 53 55 57 58 60 63 66 66 53 55 54 44 44 46 46 44 46 52 61 74 76 85 101 115 126 126 122 126
Wind_Direction
254 255 256 257 258 260 261 262 263 263 265 265 265 265 266 266 268 267 268 268 268 269 270 269 268 268 270 271 273 271 273 274 274 274 273 275 274 277 277 270 265 252 242 241 219
253 255 255 255 257 257 259 260 261 261 264 264 263 264 264 265 266 265 266 267 267 266 267 269 266 268 269 269 269 269 272 269 272 270 269 272 273 273 274 271 266 247 243 237 225
257 255 254 254 256 256 258 259 259 260 261 261 262 262 262 262 261 262 263 264 264 265 266 267 268 268 268 269 268 267 270 271 271 270 268 270 269 268 270 269 262 242 238 234 227
258 259 259 260 259 259 258 259 260 261 263 262 261 261 262 263 265 266 265 265 266 265 266 268 270 270 269 269 268 269 270 272 270 270 268 266 266 265 265 261 253 232 231 232 224
261 260 260 260 261 260 262 262 262 263 264 266 266 265 264 265 266 265 267 268 269 269 269 269 269 269 268 268 268 268 270 269 269 269 266 264 261 260 256 251 246 233 225 228 222
261 262 262 262 261 261 262 262 262 263 264 265 266 267 268 268 268 268 268 268 268 268 268 269 269 270 272 271 269 271 269 268 269 266 263 256 253 252 250 246 240 230 222 225 225
262 261 262 264 261 261 263 262 262 263 262 264 265 265 266 267 267 268 268 267 267 268 269 268 269 269 270 270 270 268 267 268 265 264 261 253 250 245 242 239 233 225 219 220 222
265 266 265 263 262 262 262 263 264 264 264 264 264 265 265 267 268 268 268 269 270 269 269 270 270 268 267 268 268 269 269 265 263 260 259 253 241 235 237 238 229 223 217 218 222
265 265 265 265 266 267 267 266 265 266 266 266 267 267 267 267 267 267 268 268 268 267 269 270 271 271 271 270 268 265 263 263 258 257 252 254 233 243 238 237 235 224 216 216 221
268 267 266 267 268 268 268 268 268 268 269 269 269 269 269 268 268 268 268 268 269 270 270 271 271 271 271 270 269 269 268 259 256 258 255 251 231 234 237 229 229 228 219 216 219
271 271 269 269 270 270 271 271 271 271 271 270 270 270 269 270 270 269 269 268 269 270 270 269 269 269 269 269 268 268 267 267 263 255 255 251 237 229 235 232 228 227 220 219 219
275 274 274 272 272 271 272 274 274 274 273 272 270 270 270 269 269 270 270 269 269 270 269 269 269 268 268 267 267 267 265 264 262 260 252 249 243 226 235 234 230 226 222 221 219
281 280 279 278 278 277 276 276 275 276 275 275 275 274 274 274 273 273 271 270 270 270 270 269 268 267 266 264 262 264 261 259 257 256 252 248 238 232 229 229 231 228 226 221 222
282 281 279 277 277 278 277 276 276 276 276 275 275 276 276 276 276 275 275 273 272 271 269 268 266 265 264 262 261 259 259 257 254 249 248 249 234 229 225 225 226 227 227 224 222
282 282 281 280 279 278 276 275 275 275 276 275 276 276 276 277 277 277 277 277 276 274 271 268 265 263 263 261 261 260 259 257 252 248 243 243 241 219 223 222 223 224 223 222 221
288 287 287 285 283 282 280 278 277 276 275 274 272 273 275 275 275 277 277 276 276 276 273 269 266 263 263 263 262 260 259 258 253 248 241 237 242 210 219 218 221 219 222 220 219
294 292 289 289 286 283 282 279 276 273 271 270 270 272 273 273 274 276 276 276 274 271 271 272 272 269 264 262 262 260 258 255 253 249 236 231 234 203 217 216 216 218 216 220 219
297 296 292 288 286 283 279 276 272 266 266 268 268 268 269 271 274 277 276 274 272 270 268 268 269 271 271 267 264 265 260 258 252 249 242 234 230 213 211 215 215 217 216 217 217
298 294 291 288 286 280 276 271 270 268 267 266 265 266 269 271 274 276 276 274 273 272 271 269 267 268 269 269 268 267 264 260 250 245 241 238 222 212 210 213 214 214 215 213 217
296 293 291 288 285 282 277 273 269 267 267 267 267 268 269 272 275 277 277 277 278 277 275 272 269 272 273 271 269 265 261 260 254 244 241 234 220 208 210 210 211 213 213 211 215
296 294 292 293 290 286 284 280 276 270 266 266 266 269 271 274 276 278 281 281 280 280 278 276 275 271 274 273 271 267 263 258 254 245 239 233 218 208 208 208 211 211 212 210 211
300 300 299 298 296 292 290 286 281 275 270 267 267 270 273 275 279 281 282 282 284 282 283 283 283 282 280 276 272 268 264 256 250 246 238 230 221 208 206 208 209 211 213 211 210
307 304 304 304 304 303 300 293 288 282 277 275 274 277 280 281 281 285 286 289 287 287 285 286 286 287 287 281 274 270 263 257 247 241 236 216 213 207 206 206 207 210 212 214 213
317 316 318 315 314 315 310 305 300 297 291 288 288 288 285 285 290 287 288 291 290 288 287 287 287 288 277 278 275 271 264 255 245 236 229 213 211 209 206 205 207 209 210 213 212
327 327 329 325 323 320 314 314 313 307 303 305 300 295 294 300 300 296 295 294 295 293 290 290 288 290 287 279 277 269 263 254 243 233 223 214 214 210 206 203 205 207 210 211 212
341 338 344 341 340 338 331 324 320 317 312 307 300 303 302 302 295 294 297 295 295 295 295 294 291 289 289 281 275 267 262 253 240 229 217 207 214 210 206 203 205 206 209 211 210
343 341 339 341 337 335 330 326 323 314 309 307 309 304 301 300 301 298 295 296 295 293 290 293 288 290 286 282 269 265 258 250 239 226 211 202 215 210 208 204 204 206 208 209 209
Height
10676 10676 10677 10678 10679 10680 10680 10681 10679 10680 10681 10682 10683 10685 10686 10687 10688 10689 10691 10695 10698 10698 10699 10705 10707 10708 10711 10717 10721 10723 10725 10719 10723 10729 10726 10737 10739 10741 10742 10745 10750 10752 10752 10754 10760
10659 10659 10660 10660 10660 10661 10662 10663 10662 10663 10664 10664 10667 10669 10669 10670 10671 10672 10675 10675 10678 10682 10684 10686 10693 10694 10698 10700 10706 10708 10713 10704 10710 10713 10715 10721 10726 10729 10729 10732 10738 10745 10742 10746 10754
10639 10639 10641 10642 10642 10644 10645 10646 10646 10645 10646 10646 10648 10651 10653 10653 10655 10655 10656 10656 10658 10662 10665 10668 10672 10677 10679 10683 10685 10695 10695 10690 10688 10696 10705 10704 10708 10716 10715 10713 10726 10733 10733 10735 10744
10620 10621 10622 10623 10623 10625 10628 10627 10628 10628 10626 10627 10628 10630 10632 10634 10637 10634 10636 10637 10639 10642 10644 10646 10651 10656 10658 10662 10663 10675 10672 10672 10671 10677 10687 10687 10691 10697 10702 10693 10707 10715 10720 10722 10730
10601 10601 10602 10603 10603 10603 10605 10604 10606 10609 10607 10603 10605 10605 10611 10613 10615 10616 10618 10617 10618 10619 10620 10623 10629 10631 10634 10637 10639 10652 10652 10655 10655 10655 10663 10667 10670 10672 10683 10674 10688 10698 10705 10709 10716
10580 10580 10580 10582 10581 10581 10582 10580 10582 10586 10587 10584 10583 10584 10585 10590 10591 10591 10595 10595 10595 10595 10594 10597 10603 10604 10611 10609 10617 10624 10632 10633 10635 10631 10634 10643 10649 10657 10655 10655 10668 10683 10689 10695 10702
10562 10561 10561 10562 10561 10558 10561 10558 10559 10561 10563 10564 10562 10563 10564 10566 10567 10568 10570 10571 10570 10569 10568 10573 10578 10579 10586 10585 10590 10598 10607 10612 10611 10607 10611 10616 10640 10644 10627 10638 10651 10665 10671 10679 10685
10544 10543 10543 10543 10541 10538 10540 10538 10537 10539 10541 10541 10542 10541 10543 10545 10544 10547 10544 10544 10544 10544 10542 10549 10552 10555 10559 10565 10570 10574 10583 10591 10586 10590 10591 10600 10628 10619 10615 10623 10638 10648 10660 10669 10674
10526 10525 10525 10525 10526 10519 10519 10518 10517 10519 10518 10519 10521 10519 10521 10521 10521 10521 10521 10518 10518 10518 10520 10523 10524 10526 10531 10538 10541 10550 10561 10565 10568 10563 10569 10579 10610 10603 10606 10613 10621 10632 10642 10655 10663
10508 10507 10506 10506 10507 10502 10497 10496 10495 10497 10497 10496 10498 10497 10497 10495 10495 10495 10495 10495 10492 10491 10497 10498 10498 10500 10503 10510 10514 10518 10526 10539 10545 10544 10548 10560 10585 10582 10581 10589 10602 10614 10628 10640 10651
10490 10487 10486 10485 10485 10483 10477 10474 10473 10474 10473 10473 10473 10471 10470 10467 10468 10468 10469 10473 10468 10467 10467 10471 10471 10474 10477 10479 10485 10494 10499 10504 10511 10517 10524 10536 10558 10569 10565 10575 10588 10598 10607 10619 10634
10472 10468 10466 10464 10463 10462 10458 10451 10448 10447 10449 10447 10446 10445 10441 10439 10441 10444 10443 10441 10441 10440 10442 10439 10442 10445 10446 10448 10455 10461 10468 10473 10483 10483 10489 10501 10531 10545 10551 10566 10568 10580 10592 10604 10612
10454 10450 10446 10444 10441 10441 10437 10432 10425 10421 10420 10422 10420 10415 10411 10410 10413 10415 10413 10409 10412 10413 10412 10411 10411 10412 10413 10414 10422 10424 10430 10435 10451 10457 10465 10467 10501 10516 10535 10539 10551 10568 10576 10584 10595
10436 10432 10429 10421 10419 10416 10414 10411 10405 10400 10397 10399 10397 10389 10384 10386 10388 10386 10383 10382 10383 10384 10384 10383 10384 10380 10376 10380 10388 10398 10392 10408 10419 10430 10435 10440 10475 10493 10511 10520 10531 10548 10561 10568 10573
10416 10410 10407 10400 10395 10391 10387 10386 10382 10377 10373 10378 10372 10362 10362 10360 10361 10359 10355 10354 10355 10355 10356 10353 10352 10350 10349 10348 10356 10367 10367 10377 10389 10397 10408 10431 10427 10496 10479 10499 10524 10521 10527 10540 10550
10393 10388 10380 10376 10372 10365 10361 10359 10356 10352 10350 10350 10347 10342 10341 10341 10337 10335 10331 10331 10329 10329 10330 10328 10324 10322 10325 10323 10330 10337 10335 10346 10353 10361 10398 10413 10387 10456 10456 10481 10481 10492 10501 10516 10524
10366 10361 10356 10349 10345 10341 10336 10333 10330 10328 10327 10326 10323 10321 10320 10318 10316 10315 10310 10308 10309 10310 10305 10303 10300 10294 10299 10303 10303 10308 10306 10314 10323 10336 10368 10359 10338 10444 10434 10442 10445 10456 10472 10484 10498
10340 10332 10325 10321 10317 10311 10308 10305 10304 10304 10302 10301 10301 10300 10298 10297 10296 10291 10288 10288 10289 10286 10287 10286 10284 10264 10268 10270 10283 10276 10284 10288 10302 10318 10325 10317 10354 10408 10403 10406 10421 10433 10449 10458 10475
10310 10304 10297 10291 10287 10284 10280 10278 10279 10279 10278 10278 10279 10277 10277 10277 10275 10270 10268 10266 10264 10262 10262 10269 10267 10248 10247 10244 10252 10255 10254 10258 10271 10287 10287 10293 10350 10364 10374 10382 10399 10411 10419 10434 10448
10282 10274 10269 10265 10261 10258 10255 10254 10256 10257 10258 10258 10256 10256 10257 10257 10253 10250 10248 10246 10240 10237 10239 10241 10249 10229 10222 10223 10222 10228 10228 10235 10244 10261 10261 10285 10315 10336 10345 10358 10354 10369 10383 10405 10413
10258 10252 10246 10244 10241 10236 10232 10233 10236 10236 10236 10237 10239 10237 10238 10236 10233 10231 10227 10223 10218 10213 10213 10215 10221 10224 10206 10196 10201 10197 10206 10216 10219 10227 10240 10267 10296 10308 10312 10316 10321 10341 10359 10372 10386
10240 10236 10231 10230 10225 10220 10218 10218 10218 10219 10218 10219 10221 10222 10222 10221 10219 10214 10208 10204 10200 10198 10194 10190 10194 10199 10188 10174 10180 10179 10185 10193 10200 10208 10227 10251 10271 10273 10280 10289 10301 10318 10331 10342 10356
10224 10224 10221 10216 10214 10210 10209 10206 10205 10206 10208 10208 10209 10209 10209 10205 10206 10201 10191 10188 10184 10181 10179 10176 10168 10177 10171 10153 10157 10160 10162 10172 10182 10192 10203 10222 10228 10238 10238 10259 10277 10289 10316 10332 10348
10214 10212 10211 10207 10205 10204 10200 10199 10199 10198 10199 10198 10197 10200 10196 10192 10195 10191 10183 10177 10166 10161 10159 10162 10154 10155 10150 10138 10138 10141 10142 10151 10160 10170 10179 10200 10199 10208 10220 10242 10262 10275 10292 10309 10332
10210 10206 10205 10202 10201 10198 10195 10192 10191 10188 10189 10191 10186 10188 10185 10185 10182 10174 10171 10165 10151 10142 10135 10142 10141 10137 10118 10126 10121 10122 10125 10130 10139 10149 10164 10183 10170 10188 10210 10227 10238 10252 10266 10286 10311
10208 10204 10203 10200 10198 10196 10193 10190 10187 10184 10182 10180 10181 10178 10176 10176 10172 10167 10159 10149 10141 10127 10110 10113 10114 10119 10103 10104 10105 10106 10108 10111 10119 10129 10145 10157 10157 10173 10189 10202 10219 10232 10249 10271 10293
10209 10203 10200 10199 10195 10192 10190 10187 10185 10180 10172 10174 10174 10170 10162 10160 10157 10151 10144 10136 10128 10117 10104 10094 10089 10096 10087 10084 10091 10090 10089 10093 10103 10114 10127 10138 10139 10159 10172 10183 10199 10220 10233 10251 10273